Dewpoint
60 63 63 64 63 63 64 64 62 63 65 64 64 63 62 60 57 55 54 55 51 53 51 52 56 62 62 62 61 61 62 61 61 61 62 62 64 64 66 65 65 64 64 64 63 63 63 63 63 62 63 62 62 62 62 62 62 62 62 62 63 64 64 66 67 69 70 70 71 72 73 74 74 74
63 62 61 62 61 61 61 60 62 64 66 66 64 63 63 63 59 57 55 55 55 54 56 52 55 60 64 62 61 61 62 63 62 63 63 62 62 64 64 64 64 64 64 63 63 62 62 62 62 62 63 62 62 62 62 62 62 62 62 63 63 63 64 65 66 67 68 69 70 71 72 72 72 73
63 62 61 62 60 62 61 61 61 63 63 65 64 62 62 62 62 61 57 55 56 56 55 56 56 56 60 59 59 59 60 61 61 63 63 63 63 65 63 63 64 63 63 63 63 62 61 61 62 62 62 63 63 63 63 63 64 64 63 63 63 63 64 65 65 66 67 68 69 69 70 71 72 72
61 62 62 62 62 62 62 64 63 64 65 63 60 59 60 62 63 64 61 58 56 57 54 56 58 58 60 61 60 60 59 60 66 64 64 64 65 63 62 63 64 63 63 63 63 62 61 61 61 61 61 62 62 62 63 63 64 64 64 64 64 64 63 64 64 65 66 67 68 68 69 70 71 72
61 62 62 62 61 62 64 64 63 60 60 62 61 62 61 61 63 63 63 58 57 57 56 55 55 57 60 60 61 60 59 59 59 63 62 63 61 61 61 61 61 62 63 63 62 61 61 61 61 61 61 61 62 63 62 62 62 62 62 63 62 63 63 63 64 64 64 66 67 68 68 69 70 72
61 62 62 61 61 63 66 62 59 59 58 60 60 60 61 62 62 62 64 63 58 57 57 55 57 54 55 56 60 60 60 59 60 59 60 59 59 59 59 59 59 60 62 62 62 62 61 60 60 60 60 61 61 61 61 61 61 61 61 62 62 62 62 62 62 63 63 64 66 67 68 68 69 71
62 61 61 61 62 61 61 61 60 60 60 60 59 59 60 61 61 62 64 64 59 56 55 57 55 54 54 55 56 58 57 60 60 60 60 58 58 58 58 58 58 60 61 61 61 61 60 60 60 60 59 60 60 60 60 60 60 60 60 60 60 61 61 61 61 62 63 63 64 66 67 68 68 70
61 60 61 60 59 59 59 60 60 61 62 60 60 61 61 63 64 63 63 65 63 59 56 58 56 55 55 54 56 57 58 57 59 59 60 60 59 59 59 59 58 58 61 61 60 60 60 59 59 59 59 59 59 59 59 59 59 58 59 59 59 59 59 59 59 60 61 61 62 64 65 67 68 68
62 61 60 59 59 58 58 59 59 60 62 60 60 59 59 60 61 61 61 63 64 63 61 59 59 58 57 56 56 57 55 56 58 59 59 59 59 59 57 58 57 59 60 60 59 59 59 59 59 59 59 59 59 58 58 58 58 57 57 57 57 58 58 58 58 59 59 60 60 62 64 65 67 67
62 61 61 60 58 57 57 57 58 60 59 61 62 62 61 61 62 63 63 63 63 63 63 62 61 61 58 56 57 58 57 55 56 57 58 58 58 59 58 57 56 57 56 56 56 58 57 57 58 59 59 59 58 57 57 57 57 56 55 54 55 57 56 56 57 58 58 58 58 59 62 64 66 67
60 60 59 60 59 59 58 58 59 61 61 59 61 65 65 64 62 61 62 63 64 63 62 61 60 61 62 60 55 55 57 57 58 57 57 58 57 57 57 57 57 56 55 57 59 58 57 58 57 57 57 58 58 57 57 56 55 55 54 54 54 54 54 55 55 55 56 57 58 58 59 60 63 66
59 58 57 56 57 58 60 60 62 63 63 61 61 61 61 61 61 59 60 61 60 60 59 60 57 60 60 59 57 56 57 57 60 59 54 53 53 54 56 57 56 55 55 56 54 56 56 56 57 58 58 58 58 58 58 59 59 57 55 55 56 56 54 54 54 55 55 55 56 57 59 60 61 63
62 62 60 57 56 60 60 65 64 65 66 59 59 59 59 59 58 58 57 60 61 61 59 57 58 57 59 59 56 52 52 54 53 54 55 55 56 54 53 55 56 54 53 55 55 55 56 54 54 54 56 55 56 55 58 58 58 58 56 56 57 57 56 55 54 54 54 54 55 55 57 59 60 61
62 62 61 62 64 64 65 69 68 65 64 64 64 61 58 57 58 57 57 59 59 59 58 58 58 56 55 57 57 53 54 55 55 54 56 57 56 57 55 55 56 55 54 54 57 57 57 55 55 55 53 55 56 56 55 52 51 54 55 56 57 58 57 56 55 54 54 54 54 54 55 56 58 60
62 64 64 63 65 65 66 66 66 64 63 63 63 63 64 65 65 60 57 57 57 58 55 56 56 55 55 55 56 56 55 55 55 56 57 56 56 56 55 53 55 58 57 57 57 57 58 58 56 56 55 55 55 54 53 54 56 56 56 57 58 57 58 58 57 56 54 54 55 54 54 55 57 58
66 66 65 66 66 65 64 63 64 66 65 64 64 64 63 63 62 62 64 62 59 60 59 58 57 56 56 57 58 56 55 56 58 60 59 58 57 56 55 55 55 58 59 57 57 56 58 58 56 56 56 54 55 51 53 55 55 56 56 57 57 57 57 57 58 58 57 56 56 56 56 56 57 58
66 67 66 66 66 65 65 65 64 65 64 65 65 65 64 63 62 60 60 60 65 62 60 59 58 59 59 59 59 60 60 60 60 60 58 58 57 57 58 58 56 57 60 58 57 56 56 57 55 53 54 52 51 49 52 54 56 56 56 57 57 57 57 57 57 58 58 58 57 56 56 57 58 58
66 66 67 66 65 65 65 65 64 65 64 64 64 63 65 63 63 63 60 59 60 62 62 61 59 61 62 61 62 61 60 60 59 59 59 58 58 58 59 59 59 59 57 57 56 56 55 55 53 52 51 49 51 53 53 54 55 55 55 55 56 56 56 57 57 57 57 57 58 57 56 56 56 57
65 65 65 65 64 64 64 67 64 64 63 63 62 62 59 58 59 60 61 62 61 62 59 61 61 61 62 61 61 61 61 60 59 58 58 59 59 59 60 59 59 57 58 57 55 52 52 51 50 51 50 49 51 53 53 54 55 55 55 56 56 56 56 56 57 57 56 56 56 57 56 55 55 55
66 66 65 64 64 64 64 60 59 60 62 61 61 60 60 60 59 58 62 60 59 60 59 59 58 57 58 55 58 58 56 57 59 57 56 58 58 56 55 54 52 52 53 55 53 51 50 51 48 50 50 51 52 54 53 54 55 56 56 56 56 56 55 56 56 57 57 57 56 56 56 55 54 54
65 65 65 64 64 64 64 58 56 58 59 62 59 60 59 59 57 56 61 60 58 59 57 56 56 55 54 54 54 53 54 57 57 57 56 55 52 53 53 52 51 51 50 50 53 51 50 53 52 51 51 53 52 53 54 56 55 56 56 56 56 56 55 55 56 56 57 57 56 56 56 55 54 55
65 65 63 63 64 64 64 55 55 56 59 62 60 58 57 57 56 56 56 56 62 58 57 56 56 55 55 55 54 54 54 54 54 58 55 53 52 52 52 50 49 47 49 50 52 53 51 53 55 54 54 54 54 53 54 55 57 57 57 57 56 55 55 55 55 56 56 56 56 56 56 55 55 59
64 64 62 62 62 63 58 53 54 54 57 61 59 59 57 56 55 55 55 55 54 55 53 54 56 60 57 60 61 60 57 57 58 59 58 55 54 52 52 50 49 48 47 50 55 54 54 55 54 55 54 53 53 54 55 56 57 58 59 58 59 56 55 54 54 53 55 55 56 56 55 55 55 61
63 61 62 58 55 53 52 50 49 51 51 60 60 58 56 55 54 57 57 56 54 55 54 56 56 57 57 57 57 56 53 53 55 54 54 54 52 52 50 49 49 48 48 51 52 53 53 55 55 56 54 54 52 56 55 56 57 57 57 58 58 58 58 55 54 53 53 53 54 55 55 54 55 61
60 61 60 59 51 50 49 48 47 47 50 52 60 58 56 57 55 52 54 55 54 55 56 56 56 54 54 54 53 51 51 49 49 50 50 50 49 49 48 46 47 48 48 51 54 55 54 55 56 56 56 56 55 54 55 55 56 57 58 58 59 61 61 61 60 60 54 53 53 54 54 55 54 59
60 61 61 61 53 50 49 48 46 46 49 51 57 59 47 47 50 53 54 54 54 53 53 53 53 52 52 49 51 49 49 47 49 46 46 45 46 48 48 50 52 51 51 54 54 56 56 56 56 56 56 56 54 54 53 54 56 56 58 58 60 63 64 61 62 63 62 60 58 55 57 55 55 55
61 60 60 58 50 49 47 45 45 46 48 49 54 47 48 48 49 50 51 53 52 52 52 52 52 52 50 48 47 47 47 46 49 46 46 46 48 52 51 53 53 53 53 55 57 57 58 56 58 58 56 56 55 55 54 54 54 57 58 62 64 63 63 64 64 62 62 61 60 55 54 54 54 55
59 61 61 57 47 45 42 43 45 47 48 55 44 46 47 48 51 51 52 51 51 52 51 51 51 49 47 48 47 46 47 46 50 49 51 52 51 51 51 53 53 54 56 56 56 57 57 57 58 59 58 57 55 55 54 55 56 58 60 62 64 63 63 62 62 61 63 62 62 61 59 59 57 57
59 51 47 44 45 45 44 45 48 47 48 47 47 46 48 51 49 51 50 50 50 49 50 48 48 48 48 46 46 49 50 51 52 53 50 49 50 50 52 53 55 56 55 55 56 57 57 60 60 60 59 58 56 56 56 56 57 57 58 59 61 64 66 66 66 65 63 63 62 61 60 59 58 58
49 48 47 47 47 47 49 54 55 56 57 50 51 51 51 50 50 49 49 51 50 50 48 46 45 44 44 44 48 50 51 50 47 47 48 47 48 49 50 51 52 54 55 56 56 55 56 60 60 58 58 58 58 57 57 58 58 58 59 59 61 63 66 66 66 66 67 64 63 63 62 61 60 59
54 54 53 53 53 51 54 54 51 51 50 52 50 50 50 49 47 47 48 48 47 46 45 45 44 44 45 47 49 47 44 44 45 46 47 45 46 49 49 50 51 52 54 55 52 54 56 58 60 59 57 57 58 58 59 59 59 59 60 61 61 60 62 64 65 66 66 65 64 64 63 62 61 60
56 55 53 53 55 55 54 52 52 51 52 51 49 47 46 46 47 46 45 44 48 49 48 47 47 47 48 46 42 40 40 40 42 46 46 46 48 48 49 50 51 51 53 53 53 55 57 57 59 60 59 58 57 57 59 59 58 57 58 59 59 60 62 64 64 65 66 65 65 63 63 62 61 61
56 57 55 55 52 53 52 49 48 46 46 47 48 50 48 45 44 44 43 43 44 45 46 44 45 44 43 41 40 41 39 42 41 45 46 49 49 51 50 50 50 51 51 51 53 54 56 57 59 60 61 61 59 58 57 56 56 56 56 57 59 59 61 63 64 63 64 66 63 62 62 63 63 62
54 53 52 50 49 48 47 45 45 43 44 45 45 45 46 44 44 43 42 41 41 43 43 43 42 42 41 39 39 39 39 40 40 43 46 48 49 49 48 49 50 51 53 52 52 52 55 57 59 60 60 61 60 58 58 56 55 55 56 57 58 59 62 62 64 64 64 63 63 61 62 62 63 63
51 52 52 49 48 47 45 44 43 45 44 44 43 43 43 42 43 44 40 40 41 40 39 40 41 39 37 39 39 38 39 39 39 40 45 47 50 49 49 49 50 51 52 52 51 53 55 57 57 57 57 58 59 60 58 58 57 55 55 58 57 58 59 61 64 65 63 65 65 63 62 62 62 63
53 52 50 48 46 45 44 43 45 43 41 42 43 43 41 40 41 41 40 42 38 38 39 39 37 36 37 37 37 37 37 38 37 39 42 45 46 47 48 49 50 51 51 52 52 53 56 58 57 56 55 54 55 55 56 58 57 57 55 55 57 58 59 60 63 64 64 63 64 63 61 61 62 63
50 48 47 46 48 46 45 45 45 46 42 41 40 39 40 39 39 38 42 43 43 43 40 37 36 36 36 35 37 37 37 37 37 39 41 43 44 45 46 48 49 50 50 52 52 54 56 58 57 56 54 53 52 53 55 57 55 55 57 55 55 56 57 58 62 64 65 63 63 64 64 63 63 63
49 47 46 46 46 47 46 45 43 44 44 43 41 40 39 39 38 37 42 42 41 38 34 33 33 35 32 34 35 35 35 35 36 37 39 42 43 45 45 46 47 48 49 52 52 54 56 57 56 56 54 53 51 52 53 56 56 57 52 54 55 56 56 57 60 63 64 64 64 64 65 65 64 64
48 48 47 47 47 47 46 46 45 42 43 42 41 40 40 37 33 32 34 34 36 37 35 34 34 33 35 36 35 35 34 35 36 37 38 39 42 45 45 46 47 48 49 50 52 53 55 56 56 56 56 54 53 53 55 55 55 57 56 49 54 55 54 54 56 59 63 63 65 65 64 67 67 63
49 48 48 48 47 47 47 47 44 43 42 42 40 39 36 33 30 31 33 37 38 39 36 35 36 35 35 33 34 33 33 36 36 36 36 38 42 43 45 47 47 48 48 49 50 52 54 55 56 55 56 57 57 58 59 58 58 59 58 58 48 52 54 53 54 55 58 61 61 63 63 66 65 65
49 48 48 48 48 47 46 44 42 42 42 42 43 39 36 36 32 32 37 37 37 38 37 37 37 37 35 33 35 32 33 35 35 34 35 38 41 43 44 46 47 48 48 48 49 50 53 56 57 55 59 59 59 59 57 54 53 55 56 57 54 50 49 52 53 54 53 55 57 60 62 63 64 63
49 48 47 47 47 47 44 43 41 41 43 41 38 35 37 38 38 40 31 41 46 46 40 35 34 34 33 33 33 35 35 35 33 34 37 36 38 41 44 46 46 47 48 47 48 50 53 58 59 59 59 59 56 54 52 53 52 53 54 56 57 55 54 52 52 52 54 52 53 55 60 64 65 64
48 48 47 47 46 45 43 41 44 42 40 39 36 36 30 31 33 38 37 36 39 35 34 33 33 33 33 33 33 35 34 33 34 36 37 37 36 38 41 44 46 47 48 48 49 51 52 55 58 57 58 57 56 56 53 53 53 53 53 54 55 58 59 55 54 53 53 53 53 52 52 52 57 60
47 47 45 45 45 45 44 44 43 42 41 39 35 32 30 30 35 35 34 33 33 33 33 34 34 33 34 33 32 33 34 34 36 38 36 37 37 37 40 43 46 47 47 47 49 49 50 52 58 57 55 54 55 55 54 54 53 53 54 55 56 56 56 57 58 55 55 54 53 53 52 52 52 51
46 46 45 43 43 43 43 44 42 40 38 36 31 27 30 32 31 31 33 34 35 34 34 33 33 33 33 33 33 34 34 37 36 35 36 36 35 36 40 43 45 46 45 46 47 48 49 51 54 57 55 56 56 55 55 56 54 53 55 54 52 54 55 55 54 54 55 55 54 52 52 52 52 52